User: anonymous   Login
Location: Fort Wayne
(41.1310°N, 85.1290°W)
Time: 06:27:40
(UTC-05:00)
Language:

Iridium 37 - Orbit

View from above orbital plane
View from above orbital plane
View from above satellite
View from above satellite

Ground track
Ground track

The orbit data is extracted from the following two-line orbital elements,

1 24968U 97056D   14351.46783578  .00000380  00000-0  12870-3 0   801
2 24968 086.3957 340.3696 0002175 105.6478 254.4957 14.34211334901716
Epoch (UTC): 17 December 2014 11:13:41
Eccentricity: 0.0002175
inclination: 86.3957°
perigee height: 776 km
apogee height: 779 km
right ascension of ascending node: 340.3696°
argument of perigee: 105.6478°
revolutions per day: 14.34211334
mean anomaly at epoch: 254.4957°
orbit number at epoch: 90171

The dashed part of the orbit path shows where the satellite is in the earth's shadow,  

DLR